Time,TemperatureF,DewpointF,PressureIn,WindDirection,WindDirectionDegrees,WindSpeedMPH,WindSpeedGustMPH,Humidity,HourlyPrecipIn,Conditions,Clouds,dailyrainin,SoftwareType,DateUTC
2013-08-10 00:00:00,72.0,-99.9,-100.00,North,-999,-999.0,-999.0,-999,0.03,,,0.18,,2013-08-10 07:00:00,
2013-08-10 00:43:00,72.0,-99.9,-100.00,North,-999,-999.0,-999.0,-999,0.03,,,0.18,,2013-08-10 07:43:00,
2013-08-10 00:52:00,72.0,-99.9,-100.00,North,-999,-999.0,-999.0,-999,0.03,,,0.18,,2013-08-10 07:52:00,
2013-08-10 01:00:00,71.0,-99.9,-100.00,North,-999,-999.0,-999.0,-999,0.00,,,0.18,,2013-08-10 08:00:00,
2013-08-10 01:32:00,71.0,-99.9,-100.00,North,-999,-999.0,-999.0,-999,0.00,,,0.18,,2013-08-10 08:32:00,
2013-08-10 01:43:00,71.0,-99.9,-100.00,North,-999,-999.0,-999.0,-999,0.00,,,0.18,,2013-08-10 08:43:00,
2013-08-10 01:53:00,71.0,-99.9,-100.00,North,-999,-999.0,-999.0,-999,0.00,,,0.18,,2013-08-10 08:53:00,
2013-08-10 02:00:00,70.0,-99.9,-100.00,North,-999,-999.0,-999.0,-999,0.01,,,0.19,,2013-08-10 09:00:00,
2013-08-10 02:32:00,70.0,-99.9,-100.00,North,-999,-999.0,-999.0,-999,0.01,,,0.19,,2013-08-10 09:32:00,
2013-08-10 02:43:00,70.0,-99.9,-100.00,North,-999,-999.0,-999.0,-999,0.01,,,0.19,,2013-08-10 09:43:00,
2013-08-10 02:52:00,70.0,-99.9,-100.00,North,-999,-999.0,-999.0,-999,0.01,,,0.19,,2013-08-10 09:52:00,
2013-08-10 03:00:00,69.0,-99.9,-100.00,North,-999,-999.0,-999.0,-999,0.00,,,0.19,,2013-08-10 10:00:00,
2013-08-10 03:44:00,69.0,-99.9,-100.00,North,-999,-999.0,-999.0,-999,0.00,,,0.19,,2013-08-10 10:44:00,
2013-08-10 03:53:00,69.0,-99.9,-100.00,North,-999,-999.0,-999.0,-999,0.00,,,0.19,,2013-08-10 10:53:00,
2013-08-10 04:00:00,69.0,-99.9,-100.00,North,-999,-999.0,-999.0,-999,0.00,,,0.19,,2013-08-10 11:00:00,
2013-08-10 04:33:00,69.0,-99.9,-100.00,North,-999,-999.0,-999.0,-999,0.00,,,0.19,,2013-08-10 11:33:00,
2013-08-10 04:43:00,69.0,-99.9,-100.00,North,-999,-999.0,-999.0,-999,0.00,,,0.19,,2013-08-10 11:43:00,
2013-08-10 04:53:00,69.0,-99.9,-100.00,North,-999,-999.0,-999.0,-999,0.00,,,0.19,,2013-08-10 11:53:00,
2013-08-10 05:00:00,69.0,-99.9,-100.00,North,-999,-999.0,-999.0,-999,0.00,,,0.19,,2013-08-10 12:00:00,
2013-08-10 05:43:00,69.0,-99.9,-100.00,North,-999,-999.0,-999.0,-999,0.00,,,0.19,,2013-08-10 12:43:00,
2013-08-10 05:53:00,69.0,-99.9,-100.00,North,-999,-999.0,-999.0,-999,0.00,,,0.19,,2013-08-10 12:53:00,
2013-08-10 06:00:00,69.0,-99.9,-100.00,North,-999,-999.0,-999.0,-999,0.00,,,0.19,,2013-08-10 13:00:00,
2013-08-10 06:43:00,69.0,-99.9,-100.00,North,-999,-999.0,-999.0,-999,0.00,,,0.19,,2013-08-10 13:43:00,
2013-08-10 06:52:00,69.0,-99.9,-100.00,North,-999,-999.0,-999.0,-999,0.00,,,0.19,,2013-08-10 13:52:00,
2013-08-10 07:00:00,69.0,-99.9,-100.00,North,-999,-999.0,-999.0,-999,0.00,,,0.19,,2013-08-10 14:00:00,
2013-08-10 07:43:00,69.0,-99.9,-100.00,North,-999,-999.0,-999.0,-999,0.00,,,0.19,,2013-08-10 14:43:00,
2013-08-10 07:53:00,69.0,-99.9,-100.00,North,-999,-999.0,-999.0,-999,0.00,,,0.19,,2013-08-10 14:53:00,
2013-08-10 08:00:00,70.0,-99.9,-100.00,North,-999,-999.0,-999.0,-999,0.00,,,0.19,,2013-08-10 15:00:00,
2013-08-10 08:43:00,70.0,-99.9,-100.00,North,-999,-999.0,-999.0,-999,0.00,,,0.19,,2013-08-10 15:43:00,
2013-08-10 08:52:00,70.0,-99.9,-100.00,North,-999,-999.0,-999.0,-999,0.00,,,0.19,,2013-08-10 15:52:00,
2013-08-10 09:00:00,75.0,-99.9,-100.00,North,-999,-999.0,-999.0,-999,0.00,,,0.19,,2013-08-10 16:00:00,
2013-08-10 09:53:00,75.0,-99.9,-100.00,North,-999,-999.0,-999.0,-999,0.00,,,0.19,,2013-08-10 16:53:00,
2013-08-10 19:33:00,83.0,-99.9,-100.00,North,-999,-999.0,-999.0,-999,-99.99,,,0.19,,2013-08-11 02:33:00,
2013-08-10 20:00:00,78.0,-99.9,-100.00,North,-999,-999.0,-999.0,-999,0.00,,,0.19,,2013-08-11 03:00:00,
2013-08-10 20:37:00,78.0,-99.9,-100.00,North,-999,-999.0,-999.0,-999,0.00,,,0.19,,2013-08-11 03:37:00,
2013-08-10 20:48:00,78.0,-99.9,-100.00,North,-999,-999.0,-999.0,-999,0.00,,,0.19,,2013-08-11 03:48:00,
2013-08-10 21:00:00,75.0,-99.9,-100.00,North,-999,-999.0,-999.0,-999,0.00,,,0.19,,2013-08-11 04:00:00,
2013-08-10 21:43:00,75.0,-99.9,-100.00,North,-999,-999.0,-999.0,-999,0.00,,,0.19,,2013-08-11 04:43:00,
2013-08-10 21:53:00,75.0,-99.9,-100.00,North,-999,-999.0,-999.0,-999,0.00,,,0.19,,2013-08-11 04:53:00,
2013-08-10 22:00:00,75.0,-99.9,-100.00,North,-999,-999.0,-999.0,-999,0.00,,,0.19,,2013-08-11 05:00:00,
2013-08-10 22:39:00,75.0,-99.9,-100.00,North,-999,-999.0,-999.0,-999,0.00,,,0.19,,2013-08-11 05:39:00,
2013-08-10 22:52:00,75.0,-99.9,-100.00,North,-999,-999.0,-999.0,-999,0.00,,,0.19,,2013-08-11 05:52:00,
2013-08-10 23:00:00,73.0,-99.9,-100.00,North,-999,-999.0,-999.0,-999,0.00,,,0.04,,2013-08-11 06:00:00,
2013-08-10 23:51:00,73.0,-99.9,-100.00,North,-999,-999.0,-999.0,-999,0.00,,,0.04,,2013-08-11 06:51:00,
2013-08-10 23:58:00,73.0,-99.9,-100.00,North,-999,-999.0,-999.0,-999,0.00,,,0.04,,2013-08-11 06:58:00,